Tracking 22283 objects as of 28-Jan-2021
HD Live streaming from Space Station
objects crossing your sky now

RADUGA 1-5

Track RADUGA 1-5 now!
RADUGA 1-5 is classified as:


NORAD ID: 26477
Int'l Code: 2000-049A
Perigee: 35,749.3 km
Apogee: 35,802.4 km
Inclination: 12.8 °
Period: 1,435.2 minutes
Semi major axis: 42146 km
RCS: 10 m2 (large)
Launch date: August 28, 2000
Source: Commonwealth of Independent States (former USSR) (CIS)
Launch site: TYURATAM MISSILE AND SPACE COMPLEX (TTMTR)

Military communication.
aabbcc
Your satellite tracking list
Your tracking list is empty




NASA's NSSDC Master Catalog

Two Line Element Set (TLE):
1 26477U 00049A   21027.96242519 -.00000219  00000-0  00000+0 0  9991
2 26477  12.8252  22.2425 0006299  14.7602 163.1247  1.00335680 74776
Source of the keplerian elements: AFSPC